GW4907 Weather Reports


time (UTC)temp
C
wind
direction
speed
KPH
gust
KPH
rain 1hr
cm
rain 24hr
cm
rain mn
cm
humidity
%
barometer
mb
20260506092409 19 248 8.0 9.7 0.00 0.00 0.00 77 1011.0
20260506091909 19 248 12.9 12.9 0.00 0.00 0.00 78 1011.0
20260506091413 19 292 8.0 8.0 0.00 0.00 0.00 76 1011.0
20260506090910 19 248 6.4 6.4 0.00 0.00 0.00 76 1011.0
20260506090409 18 248 8.0 8.0 0.00 0.00 0.00 76 1011.0
20260506085908 18 225 8.0 8.0 0.00 0.00 0.00 79 1011.0
20260506085408 18 270 9.7 11.3 0.00 0.00 0.00 80 1011.0
20260506084908 18 248 8.0 8.0 0.00 0.00 0.00 80 1011.0
20260506084409 18 225 8.0 8.0 0.00 0.00 0.00 81 1011.0
20260506083908 18 248 11.3 11.3 0.00 0.00 0.00 79 1011.0
20260506083408 18 202 4.8 6.4 0.00 0.00 0.00 79 1011.0
20260506082909 18 248 8.0 8.0 0.00 0.00 0.00 79 1011.0
20260506082409 18 292 6.4 8.0 0.00 0.00 0.00 79 1011.0
20260506081908 18 292 6.4 8.0 0.00 0.00 0.00 80 1011.0
20260506081408 18 248 11.3 11.3 0.00 0.00 0.00 81 1011.0
20260506080909 18 248 8.0 8.0 0.00 0.00 0.00 80 1011.0
20260506080409 18 248 8.0 8.0 0.00 0.00 0.00 81 1011.0
20260506073408 18 248 3.2 3.2 0.00 0.00 0.00 80 1011.0
20260506072908 18 248 3.2 3.2 0.00 0.00 0.00 80 1011.0
20260506072408 18 248 4.8 4.8 0.00 0.00 0.00 81 1011.0
20260506071909 18 248 8.0 8.0 0.00 0.00 0.00 81 1011.0
20260506071408 19 248 9.7 9.7 0.00 0.00 0.00 80 1011.0
20260506070908 20 292 8.0 8.0 0.00 0.00 0.00 79 1011.0
20260506070409 20 248 8.0 9.7 0.00 0.00 0.00 76 1011.0
20260506062408 18 112 0.0 0.0 0.00 0.00 0.00 82 1011.0
20260506061909 18 112 3.2 3.2 0.00 0.00 0.00 82 1011.0
20260506061408 18 112 4.8 4.8 0.00 0.00 0.00 82 1011.0
20260506060908 17 90 3.2 3.2 0.00 0.00 0.00 83 1011.0
20260506060409 17 68 0.0 0.0 0.00 0.00 0.00 84 1011.0
20260506051409 17 68 3.2 3.2 0.00 0.00 0.00 87 1010.0
20260506050909 16 68 4.8 4.8 0.00 0.00 0.00 87 1010.0
20260506050409 16 45 6.4 6.4 0.00 0.00 0.00 88 1010.0
20260506044908 16 45 4.8 4.8 0.00 0.00 0.00 88 1010.0
20260506044408 16 45 4.8 4.8 0.00 0.00 0.00 89 1010.0
20260506043908 16 45 4.8 4.8 0.00 0.00 0.00 90 1010.0
20260506043408 16 22 4.8 6.4 0.00 0.00 0.00 91 1010.0
20260506042910 15 22 1.6 1.6 0.00 0.00 0.00 91 1010.0
20260506042410 15 45 3.2 3.2 0.00 0.00 0.00 91 1010.0
20260506041909 15 0 0.0 0.0 0.00 0.00 0.00 91 1010.0
20260506041408 15 338 1.6 1.6 0.00 0.00 0.00 91 1010.0
20260506040910 15 338 0.0 0.0 0.00 0.00 0.00 91 1010.0
20260506040409 15 22 4.8 4.8 0.00 0.00 0.00 91 1010.0
20260506035908 15 0 1.6 1.6 0.00 0.00 0.00 91 1010.0
20260506035409 15 315 3.2 3.2 0.00 0.00 0.00 91 1010.0
20260506034909 15 68 0.0 0.0 0.00 0.00 0.00 91 1010.0
20260506034408 15 68 0.0 0.0 0.00 0.00 0.00 91 1010.0
20260506033908 15 68 0.0 0.0 0.00 0.00 0.00 91 1010.0
20260506033409 15 68 0.0 0.0 0.00 0.00 0.00 91 1010.0
20260506032909 15 45 1.6 1.6 0.00 0.00 0.00 91 1010.0
20260506032410 15 45 0.0 0.0 0.00 0.00 0.00 91 1010.0
20260506031908 15 68 0.0 0.0 0.00 0.00 0.00 91 1010.0
20260506031408 15 68 0.0 0.0 0.00 0.00 0.00 91 1010.0
20260506030909 15 45 0.0 0.0 0.00 0.00 0.00 91 1010.0
20260506030409 15 45 1.6 1.6 0.00 0.00 0.00 91 1010.0
20260506025908 15 22 3.2 3.2 0.00 0.00 0.00 91 1010.0
20260506025409 15 45 3.2 3.2 0.00 0.00 0.00 91 1010.0
20260506024909 15 68 3.2 3.2 0.00 0.00 0.00 91 1010.0
20260506024409 16 22 6.4 6.4 0.00 0.00 0.00 91 1010.0
20260506023909 16 45 4.8 4.8 0.00 0.00 0.00 91 1010.0
20260506023408 16 45 0.0 0.0 0.00 0.00 0.00 91 1010.0
20260506022908 16 68 3.2 3.2 0.00 0.00 0.00 91 1010.0
20260506022409 16 68 3.2 3.2 0.00 0.00 0.00 90 1010.0
20260506021909 16 45 0.0 0.0 0.00 0.00 0.00 90 1010.0
20260506021409 16 45 3.2 3.2 0.00 0.00 0.00 90 1010.0
20260506020909 16 45 0.0 0.0 0.00 0.00 0.00 90 1010.0
20260506020409 16 22 3.2 3.2 0.00 0.00 0.00 90 1010.0
20260506015909 16 68 1.6 1.6 0.00 0.00 0.00 90 1010.0
20260506015408 16 45 3.2 3.2 0.00 0.00 0.00 90 1010.0
20260506014908 16 45 4.8 6.4 0.00 0.00 0.00 90 1010.0
20260506014409 16 68 3.2 3.2 0.00 0.00 0.00 90 1010.0
20260506013908 16 22 4.8 4.8 0.00 0.00 0.00 90 1010.0
20260506013408 16 45 3.2 3.2 0.00 0.00 0.00 90 1010.0
20260506012908 16 22 3.2 3.2 0.00 0.00 0.00 90 1010.0
20260506012408 16 45 3.2 3.2 0.00 0.00 0.00 90 1010.0
20260506011908 16 45 0.0 0.0 0.00 0.00 0.00 90 1010.0
20260506011409 16 45 3.2 3.2 0.00 0.00 0.00 90 1010.0
20260506010908 16 45 1.6 1.6 0.00 0.00 0.00 89 1010.0
20260506010414 16 45 6.4 8.0 0.00 0.00 0.00 89 1010.0
20260506005909 16 45 1.6 1.6 0.00 0.00 0.00 89 1010.0
20260506005408 16 68 6.4 8.0 0.00 0.00 0.00 89 1010.0
20260506004908 16 45 3.2 3.2 0.00 0.00 0.00 88 1010.0
20260506004408 16 45 3.2 3.2 0.00 0.00 0.00 88 1010.0
20260506003909 16 68 0.0 0.0 0.00 0.00 0.00 88 1010.0
20260506003409 16 22 3.2 3.2 0.00 0.00 0.00 88 1010.0
20260506002908 16 292 0.0 0.0 0.00 0.00 0.00 87 1010.0
20260506002409 16 292 0.0 0.0 0.00 0.00 0.00 87 1010.0
20260506001908 16 292 0.0 0.0 0.00 0.00 0.00 87 1010.0
20260506001409 16 292 0.0 0.0 0.00 0.00 0.00 87 1011.0
20260506000910 16 292 0.0 0.0 0.00 0.00 0.00 87 1011.0
20260506000410 16 292 0.0 0.0 0.00 0.00 0.00 87 1011.0
20260505235908 16 292 0.0 0.0 0.00 0.00 0.00 87 1011.0
20260505235409 16 292 0.0 0.0 0.00 0.00 0.00 87 1011.0
20260505234908 16 292 0.0 0.0 0.00 0.00 0.00 87 1011.0
20260505234408 16 292 0.0 0.0 0.00 0.00 0.00 87 1011.0
20260505233909 16 292 0.0 0.0 0.00 0.00 0.00 87 1011.0
20260505233408 16 292 0.0 0.0 0.00 0.00 0.00 87 1011.0
20260505232908 16 292 0.0 0.0 0.00 0.00 0.00 87 1011.0
20260505232408 16 292 0.0 0.0 0.00 0.00 0.00 87 1011.0
20260505231908 16 292 0.0 0.0 0.00 0.00 0.00 87 1011.0
20260505231408 16 292 0.0 0.0 0.00 0.00 0.00 87 1011.0
20260505230908 16 292 0.0 0.0 0.00 0.00 0.00 87 1011.0
20260505230408 16 292 3.2 3.2 0.00 0.00 0.00 87 1011.0
20260505225908 16 248 0.0 0.0 0.00 0.00 0.00 87 1011.0
20260505225408 16 248 0.0 0.0 0.00 0.00 0.00 87 1011.0
20260505224909 16 248 0.0 0.0 0.00 0.00 0.00 87 1011.0
20260505224408 16 248 3.2 3.2 0.00 0.00 0.00 87 1011.0
20260505223908 16 248 3.2 3.2 0.00 0.00 0.00 87 1011.0
20260505223409 16 248 1.6 1.6 0.00 0.00 0.00 86 1011.0
20260505222909 16 248 4.8 4.8 0.00 0.00 0.00 86 1011.0
20260505222408 16 248 3.2 3.2 0.00 0.00 0.00 86 1011.0
20260505221909 16 225 4.8 4.8 0.00 0.00 0.00 86 1011.0
20260505221408 16 248 4.8 4.8 0.00 0.00 0.00 86 1011.0
20260505220909 16 248 3.2 3.2 0.00 0.00 0.00 86 1011.0
20260505220409 17 248 1.6 1.6 0.00 0.00 0.00 86 1011.0
20260505215908 17 248 3.2 3.2 0.00 0.00 0.00 86 1011.0
20260505215409 16 248 3.2 3.2 0.00 0.00 0.00 86 1011.0
20260505214909 16 248 0.0 0.0 0.00 0.00 0.00 86 1011.0
20260505214409 16 248 3.2 3.2 0.00 0.00 0.00 86 1011.0
20260505213909 16 248 3.2 3.2 0.00 0.00 0.00 86 1011.0
20260505213409 16 248 8.0 8.0 0.00 0.00 0.00 86 1011.0
20260505212909 16 225 0.0 0.0 0.00 0.00 0.00 86 1011.0
20260505212408 16 248 3.2 3.2 0.00 0.00 0.00 86 1011.0
20260505211908 16 248 3.2 3.2 0.00 0.00 0.00 86 1011.0
20260505211408 16 270 0.0 0.0 0.00 0.00 0.00 87 1011.0
20260505210912 16 248 4.8 4.8 0.00 0.00 0.00 87 1011.0
20260505210409 16 248 3.2 3.2 0.00 0.00 0.00 87 1011.0
20260505205909 16 248 6.4 6.4 0.00 0.00 0.00 87 1011.0
20260505205409 16 270 4.8 6.4 0.00 0.00 0.00 86 1011.0
20260505204909 17 248 9.7 9.7 0.00 0.00 0.00 86 1011.0
20260505204409 17 248 8.0 8.0 0.00 0.00 0.00 86 1011.0
20260505203909 17 248 4.8 6.4 0.00 0.00 0.00 86 1011.0
20260505203408 17 248 4.8 4.8 0.00 0.00 0.00 86 1011.0
20260505202908 17 248 4.8 4.8 0.00 0.00 0.00 86 1011.0
20260505202409 17 270 4.8 4.8 0.00 0.00 0.00 86 1011.0
20260505201909 17 248 3.2 3.2 0.00 0.00 0.00 86 1011.0
20260505201412 17 270 4.8 6.4 0.00 0.00 0.00 86 1012.0
20260505200909 17 248 6.4 8.0 0.00 0.00 0.00 86 1012.0
20260505200409 17 248 4.8 4.8 0.00 0.00 0.00 86 1012.0
20260505195911 17 292 9.7 9.7 0.00 0.00 0.00 87 1011.0
20260505195412 17 248 3.2 3.2 0.00 0.00 0.00 87 1011.0
20260505194909 17 248 4.8 4.8 0.00 0.00 0.00 87 1011.0
20260505194410 17 248 3.2 3.2 0.00 0.00 0.00 87 1011.0
20260505193909 17 248 6.4 8.0 0.00 0.00 0.00 87 1011.0
20260505193408 17 248 1.6 1.6 0.00 0.00 0.00 87 1011.0
20260505192909 17 248 4.8 4.8 0.00 0.00 0.00 87 1011.0
20260505192408 17 248 3.2 3.2 0.00 0.00 0.00 87 1011.0
20260505191908 17 248 4.8 4.8 0.00 0.00 0.00 87 1011.0
20260505191408 17 248 0.0 0.0 0.00 0.00 0.00 87 1011.0
20260505190908 17 225 6.4 8.0 0.00 0.00 0.00 87 1011.0
20260505190408 17 248 4.8 4.8 0.00 0.00 0.00 86 1011.0
20260505185909 17 225 6.4 8.0 0.00 0.00 0.00 86 1011.0
20260505185409 17 248 4.8 6.4 0.00 0.00 0.00 86 1011.0
20260505184908 17 248 3.2 3.2 0.00 0.00 0.00 86 1011.0
20260505184409 17 225 8.0 8.0 0.00 0.00 0.00 86 1011.0
20260505183909 17 248 4.8 6.4 0.00 0.00 0.00 85 1011.0
20260505183408 17 248 6.4 8.0 0.00 0.00 0.00 85 1011.0
20260505182909 17 248 11.3 12.9 0.00 0.00 0.00 85 1011.0
20260505182408 17 248 3.2 3.2 0.00 0.00 0.00 85 1011.0
20260505181908 17 292 9.7 9.7 0.00 0.00 0.00 85 1011.0
20260505181408 17 248 8.0 8.0 0.00 0.00 0.00 85 1010.0
20260505180909 17 248 6.4 8.0 0.00 0.00 0.00 85 1010.0
20260505180414 17 292 8.0 8.0 0.00 0.00 0.00 85 1010.0
20260505175909 17 248 8.0 8.0 0.00 0.00 0.00 85 1010.0
20260505175409 17 248 8.0 8.0 0.00 0.00 0.00 85 1010.0
20260505174908 17 248 9.7 9.7 0.00 0.00 0.00 84 1010.0
20260505174411 17 225 12.9 14.5 0.00 0.00 0.00 84 1010.0
20260505173910 17 248 8.0 9.7 0.00 0.00 0.00 84 1010.0
20260505173411 17 248 9.7 9.7 0.00 0.00 0.00 84 1010.0
20260505172908 17 225 12.9 12.9 0.00 0.00 0.00 84 1010.0
20260505172408 17 248 4.8 4.8 0.00 0.00 0.00 84 1010.0
20260505171909 17 292 12.9 14.5 0.00 0.00 0.00 83 1010.0
20260505171409 17 202 12.9 12.9 0.00 0.00 0.00 83 1010.0
20260505170909 17 248 14.5 16.1 0.00 0.00 0.00 83 1010.0
20260505170409 17 248 8.0 9.7 0.00 0.00 0.00 83 1010.0
20260505165909 17 248 9.7 9.7 0.00 0.00 0.00 83 1010.0
20260505165410 18 202 12.9 12.9 0.00 0.00 0.00 82 1010.0
20260505164911 18 248 12.9 14.5 0.00 0.00 0.00 82 1010.0
20260505164409 18 248 11.3 12.9 0.00 0.00 0.00 82 1010.0
20260505163911 18 292 8.0 8.0 0.00 0.00 0.00 82 1010.0
20260505163410 18 248 14.5 14.5 0.00 0.00 0.00 82 1010.0
20260505162909 18 248 6.4 8.0 0.00 0.00 0.00 81 1010.0
20260505162408 18 248 14.5 16.1 0.00 0.00 0.00 80 1010.0
20260505161909 18 248 11.3 12.9 0.00 0.00 0.00 80 1010.0
20260505161409 18 202 17.7 20.9 0.00 0.00 0.00 81 1010.0
20260505160908 18 202 12.9 14.5 0.00 0.00 0.00 82 1010.0
20260505160409 18 248 14.5 16.1 0.00 0.00 0.00 82 1010.0
20260505152909 19 248 19.3 25.7 0.00 0.00 0.00 78 1010.0
20260505152409 19 315 16.1 17.7 0.00 0.00 0.00 77 1010.0
20260505151909 19 248 9.7 9.7 0.00 0.00 0.00 79 1010.0
20260505151409 19 248 16.1 16.1 0.00 0.00 0.00 79 1011.0
20260505150908 19 248 19.3 22.5 0.00 0.00 0.00 79 1011.0
20260505150409 19 270 16.1 22.5 0.00 0.00 0.00 80 1011.0
20260505140411 20 248 17.7 20.9 0.00 0.00 0.00 78 1011.0
20260505124908 20 202 14.5 16.1 0.00 0.00 0.00 77 1011.0
20260505124409 20 248 16.1 19.3 0.00 0.00 0.00 76 1011.0
20260505123909 20 270 17.7 19.3 0.00 0.00 0.00 77 1011.0
20260505123409 20 248 14.5 16.1 0.00 0.00 0.00 77 1011.0
20260505122909 20 270 20.9 24.1 0.00 0.00 0.00 77 1011.0
20260505122408 20 248 16.1 19.3 0.00 0.00 0.00 77 1011.0
20260505121908 19 248 16.1 16.1 0.00 0.00 0.00 76 1011.0
20260505121412 19 225 17.7 19.3 0.00 0.00 0.00 79 1011.0
20260505120909 19 248 19.3 20.9 0.00 0.00 0.00 78 1011.0
20260505120409 19 248 12.9 12.9 0.00 0.00 0.00 79 1011.0
20260505115910 19 248 11.3 12.9 0.00 0.00 0.00 78 1012.0
20260505115408 19 292 16.1 17.7 0.00 0.00 0.00 78 1012.0
20260505114910 19 292 20.9 24.1 0.00 0.00 0.00 78 1012.0
20260505114409 20 202 17.7 20.9 0.00 0.00 0.00 78 1012.0
20260505113909 19 248 12.9 16.1 0.00 0.00 0.00 77 1012.0
20260505113408 19 248 14.5 17.7 0.00 0.00 0.00 78 1012.0
20260505112908 19 225 17.7 20.9 0.00 0.00 0.00 77 1012.0
20260505112408 19 248 14.5 16.1 0.00 0.00 0.00 79 1012.0
20260505111908 19 292 14.5 16.1 0.00 0.00 0.00 78 1012.0
20260505111409 19 248 16.1 17.7 0.00 0.00 0.00 78 1012.0
20260505110909 19 248 14.5 14.5 0.00 0.00 0.00 78 1012.0
20260505110409 19 225 9.7 9.7 0.00 0.00 0.00 78 1012.0
20260505101908 19 225 16.1 19.3 0.00 0.00 0.00 76 1012.0
20260505101408 20 248 9.7 9.7 0.00 0.00 0.00 76 1012.0
20260505100909 20 248 14.5 17.7 0.00 0.00 0.00 73 1012.0
20260505100410 20 202 14.5 19.3 0.00 0.00 0.00 73 1012.0
20260505095909 20 248 14.5 16.1 0.00 0.00 0.00 68 1012.0
20260505095411 20 270 6.4 8.0 0.00 0.00 0.00 64 1012.0
20260505094909 20 248 9.7 11.3 0.00 0.00 0.00 69 1012.0
20260505094408 20 225 8.0 8.0 0.00 0.00 0.00 70 1012.0
20260505093909 20 225 14.5 16.1 0.00 0.00 0.00 68 1012.0
20260505093413 20 248 14.5 16.1 0.00 0.00 0.00 63 1012.0
20260505092910 20 225 11.3 11.3 0.00 0.00 0.00 61 1012.0